,

(GMT )
Banff

Weather History for CWZG - July, 2013

Change the Weather History Date:

Tuesday, July 16, 2013

  Actual Average Record
Temperature  
Mean Temperature 54 °F -  
Max Temperature 70 °F - - ()
Min Temperature 37 °F - - ()
Degree Days  
Heating Degree Days 12    
Growing Degree Days 4 (Base 50)    
Moisture  
Dew Point 37 °F    
Average Humidity 54    
Maximum Humidity 98    
Minimum Humidity 23    
Precipitation  
Precipitation 0.00 in - - ()
Sea Level Pressure  
Sea Level Pressure 30.23 in    
Wind  
Wind Speed 3 mph ()    
Max Wind Speed 8 mph    
Max Gust Speed -    
T = Trace of Precipitation, MM = Missing Value Source: Averaged Metar Reports

Daily Weather History Graph

Daily Weather History Graph

Search for Another Location

Airport or City:

Trip Planner

Search our weather history database for the weather conditions in past years. The results will help you decide how hot, cold, wet, or windy it might be!

Date:

Astronomy

Jul. 16, 2013 Rise Set
Actual Time 5:45 AM MDT 9:50 PM MDT
Civil Twilight 5:01 AM MDT 10:33 PM MDT
Nautical Twilight 3:59 AM MDT 11:35 PM MDT
Astronomical Twilight 2:20 AM MDT 1:15 AM MDT
Moon 3:20 PM MDT (7/16) 12:39 AM MDT (7/16)
Length of Visible Light 17h 31m
Length of Day
16h 04m
First Quarter, 57% of the Moon is Illuminated
Jul 16
First Quarter
Jul 22
Full
Jul 29
Last Quarter
Aug 6
New
Aug 14
First Quarter

Hourly Weather History & Observations

Time (MDT) Temp. Windchill Dew Point Humidity Pressure Visibility Wind Dir Wind Speed Gust Speed Precip Events Conditions
12:00 AM 52.5 °F - 40.6 °F 64% 30.20 in - NE 4.6 mph - N/A   Unknown
1:00 AM 50.2 °F - 39.9 °F 68% 30.22 in - NE 2.3 mph - N/A   Unknown
2:00 AM 47.7 °F - 39.4 °F 73% 30.25 in - NNE 3.5 mph - N/A   Unknown
3:00 AM 45.1 °F - 38.7 °F 78% 30.26 in - NNE 2.3 mph - N/A   Unknown
4:00 AM 39.9 °F - 37.8 °F 92% 30.29 in - Calm Calm - N/A   Unknown
5:00 AM 37.8 °F - 37.2 °F 98% 30.30 in - Calm Calm - N/A   Unknown
6:00 AM 38.1 °F - 37.2 °F 97% 30.31 in - WSW 1.2 mph - N/A   Unknown
7:00 AM 39.2 °F - 38.7 °F 98% 30.32 in - SSW 2.3 mph - N/A   Unknown
8:00 AM 44.2 °F 42.7 °F 37.8 °F 78% 30.32 in - WSW 3.5 mph - N/A   Unknown
9:00 AM 48.6 °F - 38.3 °F 68% 30.30 in - SSW 3.5 mph - N/A   Unknown
10:00 AM 55.6 °F - 40.5 °F 57% 30.27 in - South 1.2 mph - N/A   Unknown
11:00 AM 60.8 °F - 39.0 °F 45% 30.25 in - NNE 3.5 mph - N/A   Unknown
12:00 PM 64.0 °F - 31.5 °F 30% 30.23 in - East 3.5 mph - N/A   Unknown
1:00 PM 66.6 °F - 33.8 °F 30% 30.22 in - NE 4.6 mph - N/A   Unknown
2:00 PM 68.2 °F - 31.6 °F 26% 30.21 in - NNE 6.9 mph - N/A   Unknown
3:00 PM 69.3 °F - 32.0 °F 25% 30.21 in - ENE 6.9 mph - N/A   Unknown
4:00 PM 70.0 °F - 30.2 °F 23% 30.20 in - ENE 6.9 mph - N/A   Unknown
5:00 PM 70.5 °F - 32.0 °F 24% 30.19 in - East 5.8 mph - N/A   Unknown
6:00 PM 70.9 °F - 36.0 °F 28% 30.17 in - ENE 6.9 mph - N/A   Unknown
7:00 PM 69.4 °F - 35.2 °F 28% 30.15 in - ENE 8.1 mph - N/A   Unknown
8:00 PM 67.5 °F - 37.2 °F 33% 30.15 in - NE 6.9 mph - N/A   Unknown
9:00 PM 63.3 °F - 40.1 °F 43% 30.15 in - NE 6.9 mph - N/A   Unknown
10:00 PM 61.7 °F - 40.8 °F 46% 30.16 in - ENE 4.6 mph - N/A   Unknown
11:00 PM 58.5 °F - 41.4 °F 53% 30.17 in - East 3.5 mph - N/A   Unknown